Time,TemperatureF,DewpointF,PressureIn,WindDirection,WindDirectionDegrees,WindSpeedMPH,WindSpeedGustMPH,Humidity,HourlyPrecipIn,Conditions,Clouds,dailyrainin,SoftwareType,DateUTC
2013-04-06 00:00:00,44.9,39.1,30.02,NNW,346,0.0,0.0,80,0.00,,,0.00,Wunderground v.1.15,2013-04-06 04:00:00,
2013-04-06 00:01:00,44.9,39.1,30.01,NNW,346,0.0,0.0,80,0.00,,,0.00,Wunderground v.1.15,2013-04-06 04:01:00,
2013-04-06 00:03:00,44.9,39.1,30.01,NNW,346,0.0,0.0,80,0.00,,,0.00,Wunderground v.1.15,2013-04-06 04:03:00,
2013-04-06 00:08:00,44.9,39.1,30.01,NNW,346,0.0,0.0,80,0.00,,,0.00,Wunderground v.1.15,2013-04-06 04:08:00,
2013-04-06 00:14:00,45.0,39.2,30.01,NNW,346,0.0,0.0,80,0.00,,,0.00,Wunderground v.1.15,2013-04-06 04:14:00,
2013-04-06 00:19:00,45.3,39.2,30.01,NNW,346,0.0,0.0,79,0.00,,,0.00,Wunderground v.1.15,2013-04-06 04:19:00,
2013-04-06 00:25:00,45.3,39.5,30.01,NNW,346,0.0,0.0,80,0.00,,,0.00,Wunderground v.1.15,2013-04-06 04:25:00,
2013-04-06 00:32:00,45.2,39.1,30.01,NNW,346,0.0,0.0,79,0.00,,,0.00,Wunderground v.1.15,2013-04-06 04:32:00,
2013-04-06 00:37:00,45.4,39.6,30.01,NNW,346,0.0,0.0,80,0.00,,,0.00,Wunderground v.1.15,2013-04-06 04:37:00,
2013-04-06 00:42:00,45.1,39.0,30.01,NNW,346,1.0,1.0,79,0.00,,,0.00,Wunderground v.1.15,2013-04-06 04:42:00,
2013-04-06 00:47:00,44.2,38.7,30.01,NNW,346,0.0,1.0,81,0.00,,,0.00,Wunderground v.1.15,2013-04-06 04:47:00,
2013-04-06 00:53:00,43.6,38.5,30.02,NNW,346,0.0,0.0,82,0.00,,,0.00,Wunderground v.1.15,2013-04-06 04:53:00,
2013-04-06 00:59:00,43.1,38.3,30.02,NNW,346,0.0,0.0,83,0.00,,,0.00,Wunderground v.1.15,2013-04-06 04:59:00,
2013-04-06 01:04:00,42.6,38.1,30.01,NNW,346,0.0,0.0,84,0.00,,,0.00,Wunderground v.1.15,2013-04-06 05:04:00,
2013-04-06 01:10:00,42.7,38.5,30.02,NNW,346,0.0,0.0,85,0.00,,,0.00,Wunderground v.1.15,2013-04-06 05:10:00,
2013-04-06 01:15:00,43.1,38.9,30.02,NNW,346,0.0,0.0,85,0.00,,,0.00,Wunderground v.1.15,2013-04-06 05:15:00,
2013-04-06 01:20:00,43.1,38.6,30.02,NNW,346,0.0,0.0,84,0.00,,,0.00,Wunderground v.1.15,2013-04-06 05:20:00,
2013-04-06 01:26:00,42.8,38.6,30.02,NNW,346,0.0,0.0,85,0.00,,,0.00,Wunderground v.1.15,2013-04-06 05:26:00,
2013-04-06 01:31:00,42.7,38.5,30.02,NNW,346,0.0,0.0,85,0.00,,,0.00,Wunderground v.1.15,2013-04-06 05:31:00,
2013-04-06 01:37:00,43.0,38.8,30.02,NNW,346,0.0,1.0,85,0.00,,,0.00,Wunderground v.1.15,2013-04-06 05:37:00,
2013-04-06 01:42:00,43.2,39.0,30.02,NNW,346,0.0,1.0,85,0.00,,,0.00,Wunderground v.1.15,2013-04-06 05:42:00,
2013-04-06 01:48:00,43.2,38.7,30.02,NNW,346,0.0,1.0,84,0.00,,,0.00,Wunderground v.1.15,2013-04-06 05:48:00,
2013-04-06 01:54:00,43.1,38.3,30.02,NNW,346,0.0,0.0,83,0.00,,,0.00,Wunderground v.1.15,2013-04-06 05:54:00,
2013-04-06 01:59:00,43.0,38.2,30.02,NNW,346,0.0,0.0,83,0.00,,,0.00,Wunderground v.1.15,2013-04-06 05:59:00,
2013-04-06 02:04:00,43.1,38.3,30.03,NNW,346,0.0,0.0,83,0.00,,,0.00,Wunderground v.1.15,2013-04-06 06:04:00,
2013-04-06 02:09:00,43.2,38.4,30.03,NNW,346,0.0,0.0,83,0.00,,,0.00,Wunderground v.1.15,2013-04-06 06:09:00,
2013-04-06 02:14:00,43.0,38.2,30.03,NNW,346,0.0,0.0,83,0.00,,,0.00,Wunderground v.1.15,2013-04-06 06:14:00,
2013-04-06 02:19:00,42.9,38.4,30.03,NNW,346,1.0,1.0,84,0.00,,,0.00,Wunderground v.1.15,2013-04-06 06:19:00,
2013-04-06 02:25:00,44.2,38.7,30.03,NW,312,2.0,3.0,81,0.00,,,0.00,Wunderground v.1.15,2013-04-06 06:25:00,
2013-04-06 02:30:00,46.0,39.2,30.02,WNW,299,2.0,3.0,77,0.00,,,0.00,Wunderground v.1.15,2013-04-06 06:30:00,
2013-04-06 02:35:00,46.7,39.2,30.02,WNW,299,2.0,4.0,75,0.00,,,0.00,Wunderground v.1.15,2013-04-06 06:35:00,
2013-04-06 02:40:00,46.8,38.9,30.02,WNW,299,3.0,3.0,74,0.00,,,0.00,Wunderground v.1.15,2013-04-06 06:40:00,
2013-04-06 02:45:00,46.9,39.0,30.02,WNW,299,2.0,3.0,74,0.00,,,0.00,Wunderground v.1.15,2013-04-06 06:45:00,
2013-04-06 02:50:00,47.1,39.2,30.02,WNW,299,2.0,4.0,74,0.00,,,0.00,Wunderground v.1.15,2013-04-06 06:50:00,
2013-04-06 02:55:00,47.3,39.1,30.02,WNW,299,2.0,4.0,73,0.00,,,0.00,Wunderground v.1.15,2013-04-06 06:55:00,
2013-04-06 03:00:00,47.3,39.1,30.02,WNW,299,1.0,3.0,73,0.00,,,0.00,Wunderground v.1.15,2013-04-06 07:00:00,
2013-04-06 03:05:00,47.1,39.2,30.02,WNW,299,0.0,3.0,74,0.00,,,0.00,Wunderground v.1.15,2013-04-06 07:05:00,
2013-04-06 03:10:00,46.7,38.9,30.02,WNW,299,2.0,2.0,74,0.00,,,0.00,Wunderground v.1.15,2013-04-06 07:10:00,
2013-04-06 03:15:00,46.4,38.9,30.02,WNW,299,0.0,3.0,75,0.00,,,0.00,Wunderground v.1.15,2013-04-06 07:15:00,
2013-04-06 03:20:00,46.3,38.8,30.02,WNW,299,1.0,4.0,75,0.00,,,0.00,Wunderground v.1.15,2013-04-06 07:20:00,
2013-04-06 03:25:00,46.5,39.0,30.02,WNW,299,2.0,4.0,75,0.00,,,0.00,Wunderground v.1.15,2013-04-06 07:25:00,
2013-04-06 03:31:00,46.7,38.9,30.02,WNW,299,1.0,4.0,74,0.00,,,0.00,Wunderground v.1.15,2013-04-06 07:31:00,
2013-04-06 03:36:00,46.5,39.0,30.02,WNW,299,0.0,4.0,75,0.00,,,0.00,Wunderground v.1.15,2013-04-06 07:36:00,
2013-04-06 03:41:00,46.3,38.8,30.02,WNW,299,0.0,1.0,75,0.00,,,0.00,Wunderground v.1.15,2013-04-06 07:41:00,
2013-04-06 03:46:00,45.9,38.8,30.02,WNW,299,0.0,1.0,76,0.00,,,0.00,Wunderground v.1.15,2013-04-06 07:46:00,
2013-04-06 03:51:00,45.2,38.7,30.03,WNW,299,0.0,0.0,78,0.00,,,0.00,Wunderground v.1.15,2013-04-06 07:51:00,
2013-04-06 03:57:00,44.5,38.4,30.03,WNW,299,0.0,0.0,79,0.00,,,0.00,Wunderground v.1.15,2013-04-06 07:57:00,
2013-04-06 04:00:00,44.2,38.4,30.04,WNW,292,0.0,3.0,80,0.00,,,-99.99,WeatherLink 6.0.0,2013-04-06 08:00:00,
2013-04-06 04:02:00,44.0,38.2,30.04,WNW,299,0.0,0.0,80,0.00,,,0.00,Wunderground v.1.15,2013-04-06 08:02:00,
2013-04-06 04:07:00,43.2,37.4,30.04,WNW,299,0.0,0.0,80,0.00,,,0.00,Wunderground v.1.15,2013-04-06 08:07:00,
2013-04-06 04:12:00,42.5,37.7,30.04,WNW,299,0.0,0.0,83,0.00,,,0.00,Wunderground v.1.15,2013-04-06 08:12:00,
2013-04-06 04:17:00,42.3,37.8,30.05,WNW,299,1.0,2.0,84,0.00,,,0.00,Wunderground v.1.15,2013-04-06 08:17:00,
2013-04-06 04:23:00,43.0,37.9,30.05,WNW,299,0.0,0.0,82,0.00,,,0.00,Wunderground v.1.15,2013-04-06 08:23:00,
2013-04-06 04:28:00,42.2,36.8,30.05,WNW,299,0.0,1.0,81,0.00,,,0.00,Wunderground v.1.15,2013-04-06 08:28:00,
2013-04-06 04:33:00,41.3,36.5,30.05,WNW,299,0.0,0.0,83,0.00,,,0.00,Wunderground v.1.15,2013-04-06 08:33:00,
2013-04-06 04:38:00,40.9,36.4,30.05,WNW,299,0.0,0.0,84,0.00,,,0.00,Wunderground v.1.15,2013-04-06 08:38:00,
2013-04-06 04:43:00,40.9,37.0,30.05,WNW,299,0.0,1.0,86,0.00,,,0.00,Wunderground v.1.15,2013-04-06 08:43:00,
2013-04-06 04:48:00,41.3,37.4,30.06,WNW,299,0.0,1.0,86,0.00,,,0.00,Wunderground v.1.15,2013-04-06 08:48:00,
2013-04-06 04:53:00,41.5,37.3,30.06,WNW,299,0.0,0.0,85,0.00,,,0.00,Wunderground v.1.15,2013-04-06 08:53:00,
2013-04-06 04:58:00,41.4,36.9,30.06,WNW,299,0.0,0.0,84,0.00,,,0.00,Wunderground v.1.15,2013-04-06 08:58:00,
2013-04-06 05:00:00,41.1,36.6,30.06,WNW,292,0.0,1.0,84,0.00,,,-99.99,WeatherLink 6.0.0,2013-04-06 09:00:00,
2013-04-06 05:03:00,41.0,36.5,30.06,WNW,299,0.0,0.0,84,0.00,,,0.00,Wunderground v.1.15,2013-04-06 09:03:00,
2013-04-06 05:08:00,40.9,36.7,30.06,WNW,299,0.0,1.0,85,0.00,,,0.00,Wunderground v.1.15,2013-04-06 09:08:00,
2013-04-06 05:13:00,40.2,36.3,30.07,WNW,299,0.0,0.0,86,0.00,,,0.00,Wunderground v.1.15,2013-04-06 09:13:00,
2013-04-06 05:18:00,39.8,36.0,30.07,WNW,299,0.0,0.0,86,0.00,,,0.00,Wunderground v.1.15,2013-04-06 09:18:00,
2013-04-06 05:23:00,39.5,36.0,30.08,WNW,299,0.0,0.0,87,0.00,,,0.00,Wunderground v.1.15,2013-04-06 09:23:00,
2013-04-06 05:29:00,39.6,36.6,30.07,WNW,299,0.0,0.0,89,0.00,,,0.00,Wunderground v.1.15,2013-04-06 09:29:00,
2013-04-06 05:34:00,39.6,36.3,30.07,WNW,299,0.0,1.0,88,0.00,,,0.00,Wunderground v.1.15,2013-04-06 09:34:00,
2013-04-06 05:39:00,39.6,36.3,30.07,WNW,299,1.0,1.0,88,0.00,,,0.00,Wunderground v.1.15,2013-04-06 09:39:00,
2013-04-06 05:44:00,39.5,36.2,30.07,WNW,299,0.0,0.0,88,0.00,,,0.00,Wunderground v.1.15,2013-04-06 09:44:00,
2013-04-06 05:49:00,39.2,35.9,30.08,WNW,299,0.0,0.0,88,0.00,,,0.00,Wunderground v.1.15,2013-04-06 09:49:00,
2013-04-06 05:54:00,38.9,35.9,30.08,WNW,299,0.0,1.0,89,0.00,,,0.00,Wunderground v.1.15,2013-04-06 09:54:00,
2013-04-06 05:59:00,38.7,35.7,30.08,WNW,299,0.0,2.0,89,0.00,,,0.00,Wunderground v.1.15,2013-04-06 09:59:00,
2013-04-06 06:04:00,38.6,35.6,30.09,WNW,299,0.0,0.0,89,0.00,,,0.00,Wunderground v.1.15,2013-04-06 10:04:00,
2013-04-06 06:09:00,38.3,35.3,30.09,WNW,299,0.0,0.0,89,0.00,,,0.00,Wunderground v.1.15,2013-04-06 10:09:00,
2013-04-06 06:14:00,38.0,35.3,30.09,WNW,299,0.0,0.0,90,0.00,,,0.00,Wunderground v.1.15,2013-04-06 10:14:00,
2013-04-06 06:19:00,37.9,35.2,30.09,WNW,299,0.0,0.0,90,0.00,,,0.00,Wunderground v.1.15,2013-04-06 10:19:00,
2013-04-06 06:24:00,37.7,35.0,30.10,WNW,299,0.0,0.0,90,0.00,,,0.00,Wunderground v.1.15,2013-04-06 10:24:00,
2013-04-06 06:29:00,38.2,36.1,30.10,WNW,299,0.0,0.0,92,0.00,,,0.00,Wunderground v.1.15,2013-04-06 10:29:00,
2013-04-06 06:34:00,39.4,37.3,30.11,WNW,299,0.0,2.0,92,0.00,,,0.00,Wunderground v.1.15,2013-04-06 10:34:00,
2013-04-06 06:39:00,40.5,37.8,30.10,WNW,299,1.0,2.0,90,0.00,,,0.00,Wunderground v.1.15,2013-04-06 10:39:00,
2013-04-06 06:44:00,41.2,37.9,30.11,WNW,299,1.0,3.0,88,0.00,,,0.00,Wunderground v.1.15,2013-04-06 10:44:00,
2013-04-06 06:49:00,41.6,38.0,30.11,WNW,299,2.0,2.0,87,0.00,,,0.00,Wunderground v.1.15,2013-04-06 10:49:00,
2013-04-06 06:55:00,41.7,37.8,30.11,WNW,299,0.0,3.0,86,0.00,,,0.00,Wunderground v.1.15,2013-04-06 10:55:00,
2013-04-06 07:00:00,41.8,37.9,30.11,WNW,299,0.0,1.0,86,0.00,,,0.00,Wunderground v.1.15,2013-04-06 11:00:00,
2013-04-06 07:05:00,41.8,37.6,30.11,WNW,299,0.0,1.0,85,0.00,,,0.00,Wunderground v.1.15,2013-04-06 11:05:00,
2013-04-06 07:10:00,41.5,37.6,30.12,WNW,299,0.0,0.0,86,0.00,,,0.00,Wunderground v.1.15,2013-04-06 11:10:00,
2013-04-06 07:15:00,41.4,37.5,30.13,WNW,299,0.0,2.0,86,0.00,,,0.00,Wunderground v.1.15,2013-04-06 11:15:00,
2013-04-06 07:20:00,41.6,37.7,30.13,WNW,299,2.0,2.0,86,0.00,,,0.00,Wunderground v.1.15,2013-04-06 11:20:00,
2013-04-06 07:25:00,42.1,37.9,30.13,WNW,299,0.0,2.0,85,0.00,,,0.00,Wunderground v.1.15,2013-04-06 11:25:00,
2013-04-06 07:30:00,42.3,38.1,30.13,WNW,299,1.0,1.0,85,0.00,,,0.00,Wunderground v.1.15,2013-04-06 11:30:00,
2013-04-06 07:33:00,42.2,37.7,30.14,WNW,299,0.0,1.0,84,0.00,,,0.00,Wunderground v.1.15,2013-04-06 11:33:00,
2013-04-06 07:38:00,42.0,37.8,30.14,WNW,299,2.0,2.0,85,0.00,,,0.00,Wunderground v.1.15,2013-04-06 11:38:00,
2013-04-06 07:43:00,42.3,38.1,30.14,WNW,299,0.0,3.0,85,0.00,,,0.00,Wunderground v.1.15,2013-04-06 11:43:00,
2013-04-06 07:48:00,43.0,38.8,30.15,WNW,299,0.0,3.0,85,0.00,,,0.00,Wunderground v.1.15,2013-04-06 11:48:00,
2013-04-06 07:53:00,43.6,39.1,30.15,WNW,299,0.0,2.0,84,0.00,,,0.00,Wunderground v.1.15,2013-04-06 11:53:00,
2013-04-06 07:58:00,44.0,39.2,30.15,WNW,299,1.0,2.0,83,0.00,,,0.00,Wunderground v.1.15,2013-04-06 11:58:00,
2013-04-06 08:03:00,44.2,39.1,30.15,WNW,292,1.0,3.0,82,0.00,,,-99.99,WeatherLink 6.0.0,2013-04-06 12:03:00,
2013-04-06 08:08:00,45.3,39.5,30.15,WNW,299,0.0,3.0,80,0.00,,,0.00,Wunderground v.1.15,2013-04-06 12:08:00,
2013-04-06 08:13:00,45.8,40.0,30.15,WNW,299,0.0,1.0,80,0.00,,,0.00,Wunderground v.1.15,2013-04-06 12:13:00,
2013-04-06 08:19:00,46.4,39.9,30.15,WNW,299,1.0,1.0,78,0.00,,,0.00,Wunderground v.1.15,2013-04-06 12:19:00,
2013-04-06 08:24:00,47.0,40.2,30.15,WNW,299,1.0,1.0,77,0.00,,,0.00,Wunderground v.1.15,2013-04-06 12:24:00,
2013-04-06 08:29:00,47.5,40.6,30.15,WNW,299,0.0,0.0,77,0.00,,,0.00,Wunderground v.1.15,2013-04-06 12:29:00,
2013-04-06 08:34:00,48.0,40.5,30.16,WNW,299,1.0,2.0,75,0.00,,,0.00,Wunderground v.1.15,2013-04-06 12:34:00,
2013-04-06 08:39:00,48.5,40.6,30.16,WNW,299,1.0,3.0,74,0.00,,,0.00,Wunderground v.1.15,2013-04-06 12:39:00,
2013-04-06 08:45:00,49.0,40.7,30.15,WNW,299,0.0,3.0,73,0.00,,,0.00,Wunderground v.1.15,2013-04-06 12:45:00,
2013-04-06 08:50:00,49.6,40.9,30.16,WNW,299,1.0,2.0,72,0.00,,,0.00,Wunderground v.1.15,2013-04-06 12:50:00,
2013-04-06 08:55:00,50.1,41.1,30.16,WNW,299,1.0,2.0,71,0.00,,,0.00,Wunderground v.1.15,2013-04-06 12:55:00,
2013-04-06 09:00:00,50.7,40.9,30.15,WNW,299,0.0,1.0,69,0.00,,,0.00,Wunderground v.1.15,2013-04-06 13:00:00,
2013-04-06 09:05:00,51.3,40.7,30.16,WNW,299,0.0,3.0,67,0.00,,,0.00,Wunderground v.1.15,2013-04-06 13:05:00,
2013-04-06 09:10:00,51.7,40.7,30.16,WNW,299,2.0,3.0,66,0.00,,,0.00,Wunderground v.1.15,2013-04-06 13:10:00,
2013-04-06 09:15:00,52.1,41.1,30.17,WNW,299,0.0,3.0,66,0.00,,,0.00,Wunderground v.1.15,2013-04-06 13:15:00,
2013-04-06 09:20:00,52.7,41.3,30.17,WNW,299,0.0,0.0,65,0.00,,,0.00,Wunderground v.1.15,2013-04-06 13:20:00,
2013-04-06 09:26:00,53.3,40.2,30.17,WNW,300,0.0,1.0,61,0.00,,,0.00,Wunderground v.1.15,2013-04-06 13:26:00,
2013-04-06 09:31:00,54.6,41.0,30.17,WNW,299,0.0,2.0,60,0.00,,,0.00,Wunderground v.1.15,2013-04-06 13:31:00,
2013-04-06 09:36:00,56.0,40.5,30.17,ENE,75,2.0,5.0,56,0.00,,,0.00,Wunderground v.1.15,2013-04-06 13:36:00,
2013-04-06 09:41:00,56.6,40.1,30.17,East,98,3.0,11.0,54,0.00,,,0.00,Wunderground v.1.15,2013-04-06 13:41:00,
2013-04-06 09:46:00,56.7,40.2,30.17,East,89,5.0,11.0,54,0.00,,,0.00,Wunderground v.1.15,2013-04-06 13:46:00,
2013-04-06 09:51:00,56.7,39.3,30.17,East,90,7.0,11.0,52,0.00,,,0.00,Wunderground v.1.15,2013-04-06 13:51:00,
2013-04-06 09:56:00,56.4,39.0,30.17,East,98,2.0,11.0,52,0.00,,,0.00,Wunderground v.1.15,2013-04-06 13:56:00,
2013-04-06 10:02:00,56.2,38.8,30.18,East,92,3.0,9.0,52,0.00,,,0.00,Wunderground v.1.15,2013-04-06 14:02:00,
2013-04-06 10:07:00,56.2,39.8,30.18,East,82,9.0,11.0,54,0.00,,,0.00,Wunderground v.1.15,2013-04-06 14:07:00,
2013-04-06 10:12:00,56.5,39.6,30.18,ESE,103,1.0,7.0,53,0.00,,,0.00,Wunderground v.1.15,2013-04-06 14:12:00,
2013-04-06 10:17:00,56.9,39.9,30.18,East,94,3.0,9.0,53,0.00,,,0.00,Wunderground v.1.15,2013-04-06 14:17:00,
2013-04-06 10:22:00,57.5,40.0,30.18,ESE,122,2.0,9.0,52,0.00,,,0.00,Wunderground v.1.15,2013-04-06 14:22:00,
2013-04-06 10:27:00,57.4,38.9,30.18,SE,132,9.0,13.0,50,0.00,,,0.00,Wunderground v.1.15,2013-04-06 14:27:00,
2013-04-06 10:32:00,57.7,38.1,30.18,ESE,119,6.0,10.0,48,0.00,,,0.00,Wunderground v.1.15,2013-04-06 14:32:00,
2013-04-06 10:37:00,57.6,38.0,30.18,ESE,117,3.0,10.0,48,0.00,,,0.00,Wunderground v.1.15,2013-04-06 14:37:00,
2013-04-06 10:42:00,57.9,38.3,30.18,East,88,6.0,8.0,48,0.00,,,0.00,Wunderground v.1.15,2013-04-06 14:42:00,
2013-04-06 10:47:00,58.6,39.0,30.18,East,99,4.0,8.0,48,0.00,,,0.00,Wunderground v.1.15,2013-04-06 14:47:00,
2013-04-06 10:52:00,58.7,37.4,30.18,East,95,3.0,10.0,45,0.00,,,0.00,Wunderground v.1.15,2013-04-06 14:52:00,
2013-04-06 10:58:00,59.0,39.3,30.18,East,96,5.0,10.0,48,0.00,,,0.00,Wunderground v.1.15,2013-04-06 14:58:00,
2013-04-06 11:03:00,59.6,38.8,30.18,East,90,4.0,12.0,46,0.00,,,-99.99,WeatherLink 6.0.0,2013-04-06 15:03:00,
2013-04-06 11:08:00,60.2,39.9,30.19,ESE,123,1.0,7.0,47,0.00,,,0.00,Wunderground v.1.15,2013-04-06 15:08:00,
2013-04-06 11:13:00,60.5,39.6,30.19,ESE,121,7.0,9.0,46,0.00,,,0.00,Wunderground v.1.15,2013-04-06 15:13:00,
2013-04-06 11:18:00,60.6,39.1,30.18,East,101,4.0,10.0,45,0.00,,,0.00,Wunderground v.1.15,2013-04-06 15:18:00,
2013-04-06 11:23:00,60.4,38.9,30.19,ESE,104,3.0,7.0,45,0.00,,,0.00,Wunderground v.1.15,2013-04-06 15:23:00,
2013-04-06 11:28:00,60.6,38.6,30.18,East,92,10.0,11.0,44,0.00,,,0.00,Wunderground v.1.15,2013-04-06 15:28:00,
2013-04-06 11:33:00,59.7,38.3,30.19,SSE,165,1.0,10.0,45,0.00,,,0.00,Wunderground v.1.15,2013-04-06 15:33:00,
2013-04-06 11:38:00,60.4,37.8,30.19,East,84,4.0,10.0,43,0.00,,,0.00,Wunderground v.1.15,2013-04-06 15:38:00,
2013-04-06 11:43:00,60.7,39.8,30.18,ESE,102,2.0,11.0,46,0.00,,,0.00,Wunderground v.1.15,2013-04-06 15:43:00,
2013-04-06 11:48:00,61.2,39.1,30.19,ESE,103,4.0,11.0,44,0.00,,,0.00,Wunderground v.1.15,2013-04-06 15:48:00,
2013-04-06 11:53:00,61.5,39.4,30.19,East,90,5.0,11.0,44,0.00,,,0.00,Wunderground v.1.15,2013-04-06 15:53:00,
2013-04-06 11:58:00,61.3,39.2,30.18,ENE,67,2.0,11.0,44,0.00,,,0.00,Wunderground v.1.15,2013-04-06 15:58:00,
2013-04-06 12:03:00,62.1,39.9,30.19,East,96,3.0,4.0,44,0.00,,,0.00,Wunderground v.1.15,2013-04-06 16:03:00,
2013-04-06 12:08:00,62.9,39.4,30.18,SSE,153,2.0,7.0,42,0.00,,,0.00,Wunderground v.1.15,2013-04-06 16:08:00,
2013-04-06 12:13:00,62.6,39.2,30.18,SSW,211,3.0,6.0,42,0.00,,,0.00,Wunderground v.1.15,2013-04-06 16:13:00,
2013-04-06 12:18:00,62.9,40.6,30.18,ESE,103,1.0,6.0,44,0.00,,,0.00,Wunderground v.1.15,2013-04-06 16:18:00,
2013-04-06 12:23:00,63.6,40.1,30.18,ESE,109,5.0,7.0,42,0.00,,,0.00,Wunderground v.1.15,2013-04-06 16:23:00,
2013-04-06 12:28:00,63.5,39.4,30.18,East,88,6.0,9.0,41,0.00,,,0.00,Wunderground v.1.15,2013-04-06 16:28:00,
2013-04-06 12:33:00,63.8,38.4,30.18,SSE,168,0.0,4.0,39,0.00,,,0.00,Wunderground v.1.15,2013-04-06 16:33:00,
2013-04-06 12:38:00,63.5,38.7,30.18,ESE,113,2.0,10.0,40,0.00,,,0.00,Wunderground v.1.15,2013-04-06 16:38:00,
2013-04-06 12:43:00,63.0,37.6,30.17,South,172,0.0,3.0,39,0.00,,,0.00,Wunderground v.1.15,2013-04-06 16:43:00,
2013-04-06 12:48:00,63.8,39.6,30.17,ESE,107,6.0,9.0,41,0.00,,,0.00,Wunderground v.1.15,2013-04-06 16:48:00,
2013-04-06 12:53:00,64.6,41.0,30.17,East,91,4.0,10.0,42,0.00,,,0.00,Wunderground v.1.15,2013-04-06 16:53:00,
2013-04-06 12:58:00,64.1,38.6,30.17,NE,55,2.0,10.0,39,0.00,,,0.00,Wunderground v.1.15,2013-04-06 16:58:00,
2013-04-06 13:00:00,64.2,40.0,30.17,East,90,3.0,14.0,41,0.00,,,-99.99,WeatherLink 6.0.0,2013-04-06 17:00:00,
2013-04-06 13:03:00,64.3,38.8,30.17,East,92,5.0,7.0,39,0.00,,,0.00,Wunderground v.1.15,2013-04-06 17:03:00,
2013-04-06 13:08:00,64.4,38.2,30.17,SSW,200,3.0,7.0,38,0.00,,,0.00,Wunderground v.1.15,2013-04-06 17:08:00,
2013-04-06 13:13:00,64.1,38.6,30.17,South,169,0.0,4.0,39,0.00,,,0.00,Wunderground v.1.15,2013-04-06 17:13:00,
2013-04-06 13:18:00,64.5,40.9,30.17,ESE,121,5.0,9.0,42,0.00,,,0.00,Wunderground v.1.15,2013-04-06 17:18:00,
2013-04-06 13:23:00,65.5,38.5,30.17,ESE,116,0.0,6.0,37,0.00,,,0.00,Wunderground v.1.15,2013-04-06 17:23:00,
2013-04-06 13:28:00,65.6,38.6,30.16,East,93,0.0,6.0,37,0.00,,,0.00,Wunderground v.1.15,2013-04-06 17:28:00,
2013-04-06 13:33:00,66.3,41.9,30.16,ESE,110,0.0,4.0,41,0.00,,,0.00,Wunderground v.1.15,2013-04-06 17:33:00,
2013-04-06 13:38:00,66.3,40.6,30.16,ESE,105,6.0,11.0,39,0.00,,,0.00,Wunderground v.1.15,2013-04-06 17:38:00,
2013-04-06 13:43:00,66.0,40.3,30.16,SE,125,1.0,11.0,39,0.00,,,0.00,Wunderground v.1.15,2013-04-06 17:43:00,
2013-04-06 13:48:00,66.5,38.7,30.16,South,175,0.0,11.0,36,0.00,,,0.00,Wunderground v.1.15,2013-04-06 17:48:00,
2013-04-06 13:53:00,67.0,39.9,30.15,ESE,115,2.0,7.0,37,0.00,,,0.00,Wunderground v.1.15,2013-04-06 17:53:00,
2013-04-06 13:58:00,67.0,39.9,30.15,East,98,2.0,10.0,37,0.00,,,0.00,Wunderground v.1.15,2013-04-06 17:58:00,
2013-04-06 14:04:00,66.6,40.9,30.14,ESE,109,4.0,5.0,39,0.00,,,0.00,Wunderground v.1.15,2013-04-06 18:04:00,
2013-04-06 14:09:00,67.5,40.3,30.14,NW,323,3.0,11.0,37,0.00,,,0.00,Wunderground v.1.15,2013-04-06 18:09:00,
2013-04-06 14:14:00,68.1,41.5,30.14,SE,132,6.0,6.0,38,0.00,,,0.00,Wunderground v.1.15,2013-04-06 18:14:00,
2013-04-06 14:19:00,69.3,41.9,30.14,SSW,196,6.0,9.0,37,0.00,,,0.00,Wunderground v.1.15,2013-04-06 18:19:00,
2013-04-06 14:24:00,69.2,41.8,30.14,ESE,123,3.0,6.0,37,0.00,,,0.00,Wunderground v.1.15,2013-04-06 18:24:00,
2013-04-06 14:29:00,69.7,42.9,30.13,ESE,123,5.0,5.0,38,0.00,,,0.00,Wunderground v.1.15,2013-04-06 18:29:00,
2013-04-06 14:34:00,68.6,39.1,30.13,NNE,18,2.0,7.0,34,0.00,,,0.00,Wunderground v.1.15,2013-04-06 18:34:00,
2013-04-06 14:39:00,68.5,40.5,30.13,ESE,123,4.0,7.0,36,0.00,,,0.00,Wunderground v.1.15,2013-04-06 18:39:00,
2013-04-06 14:45:00,68.0,40.0,30.13,SSE,152,1.0,7.0,36,0.00,,,0.00,Wunderground v.1.15,2013-04-06 18:45:00,
2013-04-06 14:50:00,67.6,39.7,30.13,SE,138,2.0,3.0,36,0.00,,,0.00,Wunderground v.1.15,2013-04-06 18:50:00,
2013-04-06 14:55:00,68.4,40.4,30.13,South,178,0.0,5.0,36,0.00,,,0.00,Wunderground v.1.15,2013-04-06 18:55:00,
2013-04-06 15:00:00,69.3,39.7,30.12,SSW,205,2.0,2.0,34,0.00,,,0.00,Wunderground v.1.15,2013-04-06 19:00:00,
2013-04-06 15:05:00,70.2,41.3,30.12,SSW,194,4.0,5.0,35,0.00,,,0.00,Wunderground v.1.15,2013-04-06 19:05:00,
2013-04-06 15:10:00,69.4,39.0,30.12,South,173,2.0,4.0,33,0.00,,,0.00,Wunderground v.1.15,2013-04-06 19:10:00,
2013-04-06 15:15:00,68.1,38.7,30.12,ESE,118,6.0,11.0,34,0.00,,,0.00,Wunderground v.1.15,2013-04-06 19:15:00,
2013-04-06 15:20:00,67.9,40.7,30.12,East,98,5.0,8.0,37,0.00,,,0.00,Wunderground v.1.15,2013-04-06 19:20:00,
2013-04-06 15:25:00,69.2,40.4,30.12,SSW,205,2.0,8.0,35,0.00,,,0.00,Wunderground v.1.15,2013-04-06 19:25:00,
2013-04-06 15:30:00,69.2,41.8,30.11,East,94,4.0,4.0,37,0.00,,,0.00,Wunderground v.1.15,2013-04-06 19:30:00,
2013-04-06 15:35:00,69.1,40.3,30.11,SE,142,5.0,14.0,35,0.00,,,0.00,Wunderground v.1.15,2013-04-06 19:35:00,
2013-04-06 15:40:00,68.5,41.9,30.11,SE,136,8.0,9.0,38,0.00,,,0.00,Wunderground v.1.15,2013-04-06 19:40:00,
2013-04-06 15:45:00,68.1,39.4,30.11,ESE,113,5.0,9.0,35,0.00,,,0.00,Wunderground v.1.15,2013-04-06 19:45:00,
2013-04-06 15:50:00,68.0,39.3,30.11,SE,127,3.0,5.0,35,0.00,,,0.00,Wunderground v.1.15,2013-04-06 19:50:00,
2013-04-06 15:55:00,68.5,39.0,30.11,SSE,155,3.0,5.0,34,0.00,,,0.00,Wunderground v.1.15,2013-04-06 19:55:00,
2013-04-06 16:00:00,68.5,39.8,30.11,SSE,149,3.0,9.0,35,0.00,,,0.00,Wunderground v.1.15,2013-04-06 20:00:00,
2013-04-06 16:05:00,67.9,40.7,30.11,SSE,160,2.0,11.0,37,0.00,,,0.00,Wunderground v.1.15,2013-04-06 20:05:00,
2013-04-06 16:10:00,68.4,39.7,30.10,SE,133,3.0,6.0,35,0.00,,,0.00,Wunderground v.1.15,2013-04-06 20:10:00,
2013-04-06 16:15:00,69.3,41.2,30.10,SE,129,7.0,9.0,36,0.00,,,0.00,Wunderground v.1.15,2013-04-06 20:15:00,
2013-04-06 16:20:00,69.3,41.9,30.09,SE,145,6.0,9.0,37,0.00,,,0.00,Wunderground v.1.15,2013-04-06 20:20:00,
2013-04-06 16:25:00,68.7,39.2,30.10,SE,145,4.0,10.0,34,0.00,,,0.00,Wunderground v.1.15,2013-04-06 20:25:00,
2013-04-06 16:30:00,67.9,38.5,30.10,SE,125,4.0,5.0,34,0.00,,,0.00,Wunderground v.1.15,2013-04-06 20:30:00,
2013-04-06 16:35:00,67.9,38.5,30.09,SSE,160,2.0,6.0,34,0.00,,,0.00,Wunderground v.1.15,2013-04-06 20:35:00,
2013-04-06 16:40:00,68.2,40.2,30.09,South,190,4.0,4.0,36,0.00,,,0.00,Wunderground v.1.15,2013-04-06 20:40:00,
2013-04-06 16:45:00,68.2,38.0,30.09,SE,132,0.0,6.0,33,0.00,,,0.00,Wunderground v.1.15,2013-04-06 20:45:00,
2013-04-06 16:50:00,68.6,38.3,30.09,SSE,157,0.0,2.0,33,0.00,,,0.00,Wunderground v.1.15,2013-04-06 20:50:00,
2013-04-06 16:56:00,68.7,39.9,30.09,SSE,148,0.0,6.0,35,0.00,,,0.00,Wunderground v.1.15,2013-04-06 20:56:00,
2013-04-06 17:01:00,68.5,39.0,30.09,SSW,196,3.0,4.0,34,0.00,,,0.00,Wunderground v.1.15,2013-04-06 21:01:00,
2013-04-06 17:06:00,67.5,38.1,30.09,SE,136,2.0,4.0,34,0.00,,,0.00,Wunderground v.1.15,2013-04-06 21:06:00,
2013-04-06 17:11:00,67.4,39.5,30.09,ESE,123,5.0,5.0,36,0.00,,,0.00,Wunderground v.1.15,2013-04-06 21:11:00,
2013-04-06 17:17:00,67.5,38.1,30.09,SSW,202,3.0,5.0,34,0.00,,,0.00,Wunderground v.1.15,2013-04-06 21:17:00,
2013-04-06 17:22:00,67.2,37.9,30.09,SSE,147,1.0,11.0,34,0.00,,,0.00,Wunderground v.1.15,2013-04-06 21:22:00,
2013-04-06 17:27:00,67.3,40.8,30.09,SE,133,6.0,11.0,38,0.00,,,0.00,Wunderground v.1.15,2013-04-06 21:27:00,
2013-04-06 17:32:00,67.1,39.9,30.09,SE,144,4.0,4.0,37,0.00,,,0.00,Wunderground v.1.15,2013-04-06 21:32:00,
2013-04-06 17:37:00,66.8,39.0,30.09,South,188,0.0,5.0,36,0.00,,,0.00,Wunderground v.1.15,2013-04-06 21:37:00,
2013-04-06 17:42:00,66.8,39.0,30.09,South,179,0.0,1.0,36,0.00,,,0.00,Wunderground v.1.15,2013-04-06 21:42:00,
2013-04-06 17:47:00,67.0,39.9,30.09,South,190,0.0,3.0,37,0.00,,,0.00,Wunderground v.1.15,2013-04-06 21:47:00,
2013-04-06 17:52:00,67.0,39.1,30.09,SE,146,0.0,6.0,36,0.00,,,0.00,Wunderground v.1.15,2013-04-06 21:52:00,
2013-04-06 17:57:00,66.7,38.2,30.09,SSE,161,1.0,6.0,35,0.00,,,0.00,Wunderground v.1.15,2013-04-06 21:57:00,
2013-04-06 18:02:00,66.4,38.6,30.09,SE,145,6.0,6.0,36,0.00,,,0.00,Wunderground v.1.15,2013-04-06 22:02:00,
2013-04-06 18:07:00,66.3,38.5,30.09,SSE,165,1.0,6.0,36,0.00,,,0.00,Wunderground v.1.15,2013-04-06 22:07:00,
2013-04-06 18:12:00,66.3,37.8,30.09,South,190,2.0,6.0,35,0.00,,,0.00,Wunderground v.1.15,2013-04-06 22:12:00,
2013-04-06 18:17:00,66.1,38.4,30.09,SE,141,1.0,6.0,36,0.00,,,0.00,Wunderground v.1.15,2013-04-06 22:17:00,
2013-04-06 18:22:00,66.1,38.4,30.10,East,100,1.0,4.0,36,0.00,,,0.00,Wunderground v.1.15,2013-04-06 22:22:00,
2013-04-06 18:27:00,66.1,39.1,30.10,SSE,157,1.0,4.0,37,0.00,,,0.00,Wunderground v.1.15,2013-04-06 22:27:00,
2013-04-06 18:32:00,66.0,38.3,30.10,South,182,1.0,3.0,36,0.00,,,0.00,Wunderground v.1.15,2013-04-06 22:32:00,
2013-04-06 18:37:00,66.0,39.0,30.10,SSE,155,1.0,6.0,37,0.00,,,0.00,Wunderground v.1.15,2013-04-06 22:37:00,
2013-04-06 18:42:00,66.0,39.0,30.10,SE,141,5.0,5.0,37,0.00,,,0.00,Wunderground v.1.15,2013-04-06 22:42:00,
2013-04-06 18:47:00,65.8,38.8,30.10,SSE,155,2.0,6.0,37,0.00,,,0.00,Wunderground v.1.15,2013-04-06 22:47:00,
2013-04-06 18:52:00,65.5,39.9,30.10,SE,141,2.0,2.0,39,0.00,,,0.00,Wunderground v.1.15,2013-04-06 22:52:00,
2013-04-06 18:57:00,65.3,39.7,30.10,SE,139,2.0,4.0,39,0.00,,,0.00,Wunderground v.1.15,2013-04-06 22:57:00,
2013-04-06 19:02:00,65.0,38.8,30.10,SSE,158,1.0,2.0,38,0.00,,,0.00,Wunderground v.1.15,2013-04-06 23:02:00,
2013-04-06 19:07:00,64.7,39.2,30.10,SSE,153,0.0,2.0,39,0.00,,,0.00,Wunderground v.1.15,2013-04-06 23:07:00,
2013-04-06 19:13:00,64.6,39.7,30.10,SSE,153,0.0,1.0,40,0.00,,,0.00,Wunderground v.1.15,2013-04-06 23:13:00,
2013-04-06 19:18:00,64.3,38.8,30.10,SSE,152,0.0,1.0,39,0.00,,,0.00,Wunderground v.1.15,2013-04-06 23:18:00,
2013-04-06 19:23:00,64.1,39.3,30.10,SSE,153,0.0,1.0,40,0.00,,,0.00,Wunderground v.1.15,2013-04-06 23:23:00,
2013-04-06 19:28:00,63.9,39.1,30.10,SSE,155,2.0,2.0,40,0.00,,,0.00,Wunderground v.1.15,2013-04-06 23:28:00,
2013-04-06 19:33:00,63.7,38.9,30.10,SSE,157,0.0,3.0,40,0.00,,,-99.99,WeatherLink 6.0.0,2013-04-06 23:33:00,
2013-04-06 19:38:00,63.3,39.2,30.11,SSE,155,0.0,0.0,41,0.00,,,0.00,Wunderground v.1.15,2013-04-06 23:38:00,
2013-04-06 19:44:00,63.1,39.6,30.11,SSE,155,0.0,0.0,42,0.00,,,0.00,Wunderground v.1.15,2013-04-06 23:44:00,
2013-04-06 19:49:00,62.8,39.4,30.11,SSE,155,0.0,0.0,42,0.00,,,0.00,Wunderground v.1.15,2013-04-06 23:49:00,
2013-04-06 19:54:00,62.5,39.1,30.11,SSE,155,0.0,0.0,42,0.00,,,0.00,Wunderground v.1.15,2013-04-06 23:54:00,
2013-04-06 19:59:00,62.1,39.3,30.11,SSE,155,0.0,0.0,43,0.00,,,0.00,Wunderground v.1.15,2013-04-06 23:59:00,
2013-04-06 20:04:00,61.6,39.5,30.10,SSE,155,0.0,0.0,44,0.00,,,0.00,Wunderground v.1.15,2013-04-07 00:04:00,
2013-04-06 20:09:00,61.2,39.7,30.10,SSE,155,0.0,0.0,45,0.00,,,0.00,Wunderground v.1.15,2013-04-07 00:09:00,
2013-04-06 20:14:00,60.6,41.3,30.10,SSE,155,0.0,0.0,49,0.00,,,0.00,Wunderground v.1.15,2013-04-07 00:14:00,
2013-04-06 20:19:00,60.1,40.3,30.11,SSE,155,0.0,0.0,48,0.00,,,0.00,Wunderground v.1.15,2013-04-07 00:19:00,
2013-04-06 20:25:00,59.6,41.4,30.11,SSE,155,0.0,0.0,51,0.00,,,0.00,Wunderground v.1.15,2013-04-07 00:25:00,
2013-04-06 20:30:00,59.0,40.4,30.11,SSE,155,0.0,0.0,50,0.00,,,0.00,Wunderground v.1.15,2013-04-07 00:30:00,
2013-04-06 20:35:00,58.7,40.1,30.11,SSE,155,0.0,0.0,50,0.00,,,0.00,Wunderground v.1.15,2013-04-07 00:35:00,
2013-04-06 20:40:00,58.3,40.2,30.11,SSE,155,0.0,0.0,51,0.00,,,0.00,Wunderground v.1.15,2013-04-07 00:40:00,
2013-04-06 20:45:00,58.0,39.5,30.12,SSE,155,0.0,0.0,50,0.00,,,0.00,Wunderground v.1.15,2013-04-07 00:45:00,
2013-04-06 20:50:00,57.8,38.8,30.12,SSE,155,0.0,0.0,49,0.00,,,0.00,Wunderground v.1.15,2013-04-07 00:50:00,
2013-04-06 20:55:00,57.5,38.5,30.12,SSE,155,0.0,0.0,49,0.00,,,0.00,Wunderground v.1.15,2013-04-07 00:55:00,
2013-04-06 21:00:00,57.4,39.4,30.12,SSE,155,0.0,0.0,51,0.00,,,0.00,Wunderground v.1.15,2013-04-07 01:00:00,
2013-04-06 21:05:00,57.2,39.7,30.11,SSE,155,0.0,0.0,52,0.00,,,0.00,Wunderground v.1.15,2013-04-07 01:05:00,
2013-04-06 21:10:00,57.0,39.5,30.11,SSE,155,0.0,0.0,52,0.00,,,0.00,Wunderground v.1.15,2013-04-07 01:10:00,
2013-04-06 21:15:00,56.5,40.0,30.12,SSE,155,0.0,0.0,54,0.00,,,0.00,Wunderground v.1.15,2013-04-07 01:15:00,
2013-04-06 21:20:00,56.0,41.0,30.12,SSE,155,0.0,0.0,57,0.00,,,0.00,Wunderground v.1.15,2013-04-07 01:20:00,
2013-04-06 21:25:00,55.7,40.2,30.12,SSE,155,0.0,0.0,56,0.00,,,0.00,Wunderground v.1.15,2013-04-07 01:25:00,
2013-04-06 21:30:00,55.2,40.2,30.12,SSE,155,0.0,0.0,57,0.00,,,0.00,Wunderground v.1.15,2013-04-07 01:30:00,
2013-04-06 21:35:00,54.7,38.8,30.12,SSE,155,0.0,0.0,55,0.00,,,0.00,Wunderground v.1.15,2013-04-07 01:35:00,
2013-04-06 22:00:00,53.7,39.3,30.13,North,-999,0.0,0.0,58,0.00,,,-99.99,WeatherLink 6.0.0,2013-04-07 02:00:00,
2013-04-06 22:30:00,53.7,39.7,30.13,North,-999,0.0,0.0,59,0.00,,,-99.99,WeatherLink 6.0.0,2013-04-07 02:30:00,
2013-04-06 23:00:00,53.5,39.9,30.13,SSE,157,0.0,1.0,60,0.00,,,-99.99,WeatherLink 6.0.0,2013-04-07 03:00:00,
2013-04-06 23:30:00,54.4,39.5,30.13,SSE,157,0.0,1.0,57,0.00,,,-99.99,WeatherLink 6.0.0,2013-04-07 03:30:00,